Date,TemperatureHighF,TemperatureAvgF,TemperatureLowF,DewpointHighF,DewpointAvgF,DewpointLowF,HumidityHigh,HumidityAvg,HumidityLow,PressureMaxIn,PressureMinIn,WindSpeedMaxMPH,WindSpeedAvgMPH,GustSpeedMaxMPH,PrecipitationSumIn
2013-1-1,-200.0,0.0,200.0,-99.9,-99.9,-99.9,0,0,100,30.12,30.01,0,-999,0,0.00
2013-1-2,31.7,9.9,22.6,25.0,-54.9,-99.9,93,31,75,30.28,30.11,4,-634,7,0.00
2013-1-3,37.9,11.5,17.9,29.0,-56.6,-99.9,92,25,64,30.40,30.24,10,-650,16,0.00
2013-1-4,38.3,12.8,26.6,29.0,-52.4,-99.9,88,29,69,30.44,30.36,15,-624,20,0.00
2013-1-5,44.0,14.0,19.7,33.0,-52.2,-99.9,94,27,64,30.39,30.20,11,-632,16,0.00
2013-1-6,39.6,10.4,34.8,35.0,-63.6,-99.9,85,22,75,30.39,30.11,17,-723,23,0.00
2013-1-7,41.4,13.4,18.5,30.0,-50.9,-99.9,93,29,63,30.47,30.24,6,-612,10,0.00
2013-1-8,53.2,17.8,29.0,40.0,-48.4,-99.9,93,25,58,30.33,30.20,15,-621,21,0.00
2013-1-9,55.9,12.0,49.9,48.0,-67.3,-99.9,87,17,74,30.46,30.21,4,-778,8,0.00
2013-1-10,-200.0,0.0,200.0,-99.9,-99.9,-99.9,0,0,100,30.46,29.98,0,-999,0,0.00
2013-1-11,66.4,23.2,55.5,55.0,-42.2,-99.9,97,29,63,29.98,29.82,17,-621,25,0.30
2013-1-12,66.4,13.1,65.0,65.0,-67.0,-99.9,98,19,94,29.99,29.75,7,-798,11,0.01
2013-1-13,-200.0,0.0,200.0,-99.9,-99.9,-99.9,0,0,100,30.18,29.73,0,-999,0,0.00
2013-1-14,30.6,7.7,25.9,26.0,-67.1,-99.9,88,22,80,30.46,30.18,10,-734,15,0.00
2013-1-15,30.9,6.6,27.0,27.0,-72.0,-99.9,92,19,84,30.34,30.07,13,-775,17,0.00
2013-1-16,-200.0,0.0,200.0,-99.9,-99.9,-99.9,0,0,100,30.12,30.02,0,-999,0,0.00
2013-1-17,44.7,13.0,31.0,36.0,-56.9,-99.9,91,24,65,30.41,30.09,18,-673,21,0.02
2013-1-18,43.0,14.5,20.7,31.0,-48.7,-99.9,91,28,60,30.55,30.31,11,-594,13,0.00
2013-1-19,54.9,19.0,36.7,36.0,-47.0,-99.9,74,23,47,30.30,30.00,21,-597,28,0.00
2013-1-20,41.9,14.7,35.2,26.0,-53.7,-99.9,69,19,40,30.25,30.04,13,-615,19,0.00
2013-1-21,28.1,10.0,23.1,19.0,-56.7,-99.9,82,22,44,30.31,30.16,21,-612,27,0.00
2013-1-22,21.2,5.8,11.6,5.0,-65.7,-99.9,64,18,46,30.46,30.31,9,-664,15,0.00
2013-1-23,38.4,12.2,12.9,23.0,-52.0,-99.9,82,24,50,30.40,30.11,13,-585,16,0.00
2013-1-24,27.5,10.0,19.7,13.0,-56.1,-99.9,70,20,37,30.58,30.17,16,-585,24,0.00
2013-1-25,27.6,3.4,27.1,26.0,-84.3,-99.9,92,11,89,30.39,30.10,7,-874,10,0.00
2013-1-26,37.2,12.2,22.7,27.0,-52.3,-99.9,93,29,65,30.40,30.21,6,-620,8,0.04
2013-1-27,41.1,12.1,24.7,34.0,-54.8,-99.9,92,29,74,30.40,30.15,10,-650,13,0.00
2013-1-28,-200.0,0.0,200.0,-99.9,-99.9,-99.9,0,0,100,30.16,30.05,0,-999,0,0.00
2013-1-29,64.7,17.7,60.6,61.0,-54.8,-99.9,92,25,86,30.05,29.54,20,-712,28,0.00
2013-1-30,56.0,7.7,55.0,52.0,-79.1,-99.9,88,12,80,29.71,29.32,20,-859,26,0.00
2013-1-31,35.1,9.1,26.7,26.0,-64.9,-99.9,90,20,66,30.16,29.72,23,-715,26,0.00